Location: Boitzum
(52.1496°N, 9.6943°E)
Time: 22:54:58
(UTC+00:00)

Meteor 1-23 Rocket - Pass Details

Date: 13 January 2026
Orbit: 840 x 883 km, 81.3° (Epoch: 7 February)

Event Time Altitude Azimuth Distance (km) Brightness Sun altitude
Exits shadow 04:25:57 58° 341° (NNW) 978 4.3 -26.5°
Maximum altitude 04:27:06 86° 258° (WSW) 851 4.0 -26.3°
Drops below altitude 10° 04:32:40 10° 171° (S) 2,455 6.7 -25.5°
Sets 04:35:04 0° 171° (S) 3,388 7.5 -25.1°
